• In Hungary
  • List of Countries
  • For 7 days
  • Water Temperature
  • Satellite Maps
  • Weather Map
  • News
  • Weather Widgets
  • user-avatar
    Login

    Hourly Weather Dzhuldzhag

    Today, 19 July, Thursday

    Time Temperature Precipitation Wind Pressure Humidity
    00:00 +19°C° 0 mm 2 mps 671 mmHg 53%
    01:00 +19°C° 0 mm 2 mps 671 mmHg 52%
    02:00 +19°C° 0 mm 2 mps 671 mmHg 52%
    03:00 +19°C° 0 mm 2 mps 670 mmHg 51%
    04:00 +20°C° 0 mm 2 mps 670 mmHg 52%
    05:00 +21°C° 0 mm 2 mps 671 mmHg 53%
    06:00 +21°C° 0 mm 2 mps 671 mmHg 53%
    07:00 +24°C° 0 mm 2 mps 671 mmHg 50%
    08:00 +27°C° 0 mm 2 mps 671 mmHg 47%
    09:00 +29°C° 0 mm 2 mps 671 mmHg 44%
    10:00 +29°C° 0 mm 2 mps 671 mmHg 44%
    11:00 +30°C° 0 mm 3 mps 671 mmHg 44%
    12:00 +31°C° 0 mm 3 mps 671 mmHg 44%
    13:00 +31°C° 0 mm 3 mps 670 mmHg 45%
    14:00 +31°C° 0 mm 3 mps 670 mmHg 47%
    15:00 +31°C° 0 mm 3 mps 670 mmHg 48%
    16:00 +30°C° 0 mm 2 mps 670 mmHg 53%
    17:00 +29°C° 0 mm 2 mps 670 mmHg 58%
    18:00 +28°C° 0 mm 2 mps 670 mmHg 63%
    19:00 +26°C° 0 mm 2 mps 670 mmHg 66%
    20:00 +24°C° 0 mm 2 mps 670 mmHg 70%
    21:00 +23°C° 0 mm 2 mps 670 mmHg 74%
    22:00 +23°C° 0 mm 2 mps 670 mmHg 72%
    23:00 +21°C° 0 mm 2 mps 670 mmHg 70%

    Tomorrow, 20 July, Friday

    Time Temperature Precipitation Wind Pressure Humidity
    00:00 +21°C° 0 mm 2 mps 670 mmHg 68%
    01:00 +21°C° 0 mm 2 mps 670 mmHg 66%
    02:00 +21°C° 0 mm 2 mps 670 mmHg 64%
    03:00 +21°C° 0 mm 2 mps 670 mmHg 62%
    04:00 +23°C° 0 mm 2 mps 670 mmHg 61%
    05:00 +23°C° 0 mm 2 mps 671 mmHg 60%
    06:00 +24°C° 0 mm 2 mps 671 mmHg 59%
    07:00 +26°C° 0 mm 2 mps 671 mmHg 56%
    08:00 +27°C° 0 mm 3 mps 671 mmHg 52%
    09:00 +29°C° 0 mm 3 mps 672 mmHg 48%
    10:00 +30°C° 0 mm 4 mps 672 mmHg 48%
    11:00 +30°C° 0 mm 4 mps 672 mmHg 48%
    12:00 +32°C° 0 mm 5 mps 672 mmHg 47%
    13:00 +32°C° 0.1 mm 4 mps 672 mmHg 49%
    14:00 +30°C° 0.1 mm 4 mps 672 mmHg 51%
    15:00 +30°C° 0.1 mm 4 mps 671 mmHg 53%
    16:00 +29°C° 0 mm 3 mps 671 mmHg 57%
    17:00 +28°C° 0 mm 3 mps 671 mmHg 62%
    18:00 +27°C° 0 mm 2 mps 671 mmHg 66%
    19:00 +25°C° 0 mm 2 mps 671 mmHg 70%
    20:00 +24°C° 0 mm 2 mps 671 mmHg 75%
    21:00 +22°C° 0 mm 1 mps 671 mmHg 80%
    22:00 +21°C° 0 mm 2 mps 671 mmHg 78%
    23:00 +21°C° 0 mm 2 mps 671 mmHg 76%

    Day after tomorrow, 21 July, Saturday

    Time Temperature Precipitation Wind Pressure Humidity
    00:00 +21°C° 0 mm 2 mps 671 mmHg 75%
    01:00 +21°C° 0 mm 2 mps 671 mmHg 73%
    02:00 +21°C° 0 mm 2 mps 671 mmHg 72%
    03:00 +20°C° 0 mm 2 mps 671 mmHg 71%
    04:00 +21°C° 0 mm 2 mps 671 mmHg 68%
    05:00 +23°C° 0 mm 2 mps 672 mmHg 66%
    06:00 +24°C° 0 mm 2 mps 672 mmHg 64%
    07:00 +26°C° 0 mm 3 mps 672 mmHg 58%
    08:00 +27°C° 0 mm 3 mps 673 mmHg 53%
    09:00 +29°C° 0 mm 3 mps 673 mmHg 47%
    10:00 +29°C° 0.1 mm 4 mps 673 mmHg 46%
    11:00 +30°C° 0.1 mm 4 mps 673 mmHg 46%
    12:00 +30°C° 0.1 mm 5 mps 673 mmHg 45%
    13:00 +30°C° 0.1 mm 4 mps 673 mmHg 46%
    14:00 +30°C° 0.1 mm 4 mps 673 mmHg 46%
    15:00 +30°C° 0.1 mm 4 mps 672 mmHg 47%
    16:00 +29°C° 0 mm 3 mps 672 mmHg 50%
    17:00 +28°C° 0 mm 3 mps 672 mmHg 53%
    18:00 +27°C° 0 mm 2 mps 672 mmHg 56%
    19:00 +25°C° 0 mm 2 mps 672 mmHg 62%
    20:00 +24°C° 0 mm 2 mps 672 mmHg 67%
    21:00 +21°C° 0 mm 2 mps 673 mmHg 72%
    22:00 +21°C° 0 mm 2 mps 672 mmHg 72%
    23:00 +21°C° 0 mm 2 mps 672 mmHg 71%

    22 July, Sunday

    Time Temperature Precipitation Wind Pressure Humidity
    00:00 +21°C° 0 mm 2 mps 672 mmHg 71%
    01:00 +21°C° 0 mm 2 mps 672 mmHg 70%
    02:00 +21°C° 0 mm 2 mps 672 mmHg 69%
    03:00 +20°C° 0 mm 2 mps 672 mmHg 68%
    04:00 +21°C° 0 mm 2 mps 672 mmHg 66%
    05:00 +23°C° 0 mm 2 mps 673 mmHg 65%
    06:00 +24°C° 0 mm 2 mps 673 mmHg 63%
    07:00 +25°C° 0 mm 3 mps 673 mmHg 59%
    08:00 +27°C° 0 mm 3 mps 674 mmHg 54%
    09:00 +28°C° 0 mm 3 mps 674 mmHg 50%
    10:00 +29°C° 0.1 mm 4 mps 674 mmHg 49%
    11:00 +29°C° 0.1 mm 4 mps 674 mmHg 48%
    12:00 +30°C° 0.1 mm 4 mps 674 mmHg 47%
    13:00 +30°C° 0.1 mm 4 mps 673 mmHg 48%
    14:00 +29°C° 0.1 mm 4 mps 673 mmHg 48%
    15:00 +29°C° 0.1 mm 3 mps 673 mmHg 49%
    16:00 +28°C° 0.1 mm 3 mps 672 mmHg 52%
    17:00 +28°C° 0.1 mm 2 mps 672 mmHg 54%
    18:00 +27°C° 0.1 mm 2 mps 672 mmHg 57%
    19:00 +25°C° 0 mm 2 mps 672 mmHg 62%
    20:00 +24°C° 0 mm 1 mps 672 mmHg 66%
    21:00 +22°C° 0 mm 1 mps 672 mmHg 71%
    22:00 +22°C° 0 mm 1 mps 672 mmHg 69%
    23:00 +21°C° 0 mm 2 mps 671 mmHg 67%

    23 July, Monday

    Time Temperature Precipitation Wind Pressure Humidity
    00:00 +20°C° 0 mm 2 mps 671 mmHg 66%
    01:00 +20°C° 0 mm 2 mps 671 mmHg 64%
    02:00 +20°C° 0 mm 2 mps 671 mmHg 63%
    03:00 +20°C° 0 mm 2 mps 671 mmHg 61%
    04:00 +21°C° 0 mm 2 mps 671 mmHg 60%
    05:00 +23°C° 0 mm 1 mps 672 mmHg 59%
    06:00 +24°C° 0 mm 1 mps 672 mmHg 58%
    07:00 +25°C° 0 mm 2 mps 672 mmHg 54%
    08:00 +27°C° 0 mm 2 mps 672 mmHg 49%
    09:00 +28°C° 0 mm 2 mps 673 mmHg 45%
    10:00 +29°C° 0.1 mm 3 mps 672 mmHg 44%
    11:00 +30°C° 0.1 mm 3 mps 672 mmHg 42%
    12:00 +32°C° 0.1 mm 4 mps 672 mmHg 41%
    13:00 +30°C° 0.1 mm 4 mps 672 mmHg 42%
    14:00 +30°C° 0.1 mm 4 mps 671 mmHg 42%
    15:00 +30°C° 0.1 mm 4 mps 671 mmHg 42%
    16:00 +29°C° 0 mm 3 mps 671 mmHg 46%
    17:00 +28°C° 0 mm 2 mps 671 mmHg 50%
    18:00 +27°C° 0 mm 2 mps 671 mmHg 53%
    19:00 +26°C° 0 mm 2 mps 670 mmHg 57%
    20:00 +24°C° 0 mm 2 mps 670 mmHg 60%
    21:00 +21°C° 0 mm 2 mps 670 mmHg 64%
    22:00 +21°C° 0 mm 2 mps 670 mmHg 61%
    23:00 +21°C° 0 mm 2 mps 670 mmHg 58%

    24 July, Tuesday

    Time Temperature Precipitation Wind Pressure Humidity
    00:00 +21°C° 0 mm 2 mps 671 mmHg 56%
    01:00 +21°C° 0 mm 2 mps 671 mmHg 55%
    02:00 +21°C° 0 mm 2 mps 670 mmHg 54%
    03:00 +21°C° 0 mm 2 mps 670 mmHg 53%
    04:00 +23°C° 0 mm 2 mps 671 mmHg 53%
    05:00 +24°C° 0 mm 2 mps 671 mmHg 54%
    06:00 +24°C° 0 mm 2 mps 671 mmHg 54%
    07:00 +26°C° 0 mm 2 mps 672 mmHg 50%
    08:00 +28°C° 0 mm 3 mps 672 mmHg 46%
    09:00 +30°C° 0 mm 3 mps 672 mmHg 43%
    10:00 +30°C° 0 mm 4 mps 672 mmHg 42%
    11:00 +32°C° 0 mm 4 mps 672 mmHg 42%
    12:00 +32°C° 0 mm 4 mps 673 mmHg 42%
    13:00 +32°C° 0 mm 4 mps 672 mmHg 43%
    14:00 +32°C° 0 mm 4 mps 672 mmHg 44%
    15:00 +32°C° 0 mm 4 mps 672 mmHg 46%
    16:00 +30°C° 0 mm 3 mps 672 mmHg 49%
    17:00 +29°C° 0 mm 3 mps 672 mmHg 53%
    18:00 +28°C° 0 mm 2 mps 672 mmHg 57%
    19:00 +27°C° 0 mm 2 mps 672 mmHg 61%
    20:00 +25°C° 0 mm 2 mps 672 mmHg 65%
    21:00 +24°C° 0 mm 2 mps 672 mmHg 70%
    22:00 +24°C° 0 mm 2 mps 672 mmHg 67%
    23:00 +23°C° 0 mm 2 mps 672 mmHg 64%
    Show more